Location: ???? ?????
(37.9132°N, 22.9869°E)
Time: 13:32:35
(UTC+00:00)

Envisat - Visible Passes

Search period start: 13 October 2024 00:00
Search period end: 23 October 2024 00:00
Orbit: 762 x 764 km, 98.3° (Epoch: 12 October)

Date Brightness Start Highest point End Pass type
(mag) Time Alt. Az. Time Alt. Az. Time Alt. Az.
13 Oct 5.3 01:31:19 10° NNE 01:32:20 16° NNE 01:32:20 16° NNE visible
14 Oct 6.0 00:54:15 10° NNE 00:54:16 10° NNE 00:54:16 10° NNE visible
14 Oct 5.0 02:33:27 10° NNW 02:34:24 14° NNW 02:34:24 14° NNW visible
15 Oct 5.2 01:55:22 10° N 01:56:20 16° N 01:56:20 16° N visible
16 Oct 5.7 01:17:53 10° NNE 01:18:16 12° NNE 01:18:16 12° NNE visible
16 Oct 5.2 02:58:21 10° NNW 02:58:24 10° NNW 02:58:24 10° NNW visible
17 Oct 5.2 02:19:39 10° N 02:20:20 14° N 02:20:20 14° N visible
18 Oct 5.5 01:41:47 10° N 01:42:16 13° N 01:42:16 13° N visible
19 Oct 5.3 02:44:15 10° NNW 02:44:19 10° NNW 02:44:19 10° NNW visible
20 Oct 5.4 02:05:55 10° N 02:06:14 12° N 02:06:14 12° N visible
